TimeEST,TemperatureF,Dew PointF,Humidity,Sea Level PressureIn,VisibilityMPH,Wind Direction,Wind SpeedMPH,Gust SpeedMPH,PrecipitationIn,Events,Conditions,WindDirDegrees,DateUTC
12:58 AM,18.5,12.6,78,30.49,10.0,SSW,9.2,-,N/A,,Clear,200,2013-11-25 05:58:00
1:58 AM,18.7,12.2,76,30.46,10.0,SSW,8.1,-,N/A,,Clear,200,2013-11-25 06:58:00
2:58 AM,19.8,14.0,78,30.45,10.0,SSW,9.2,-,N/A,,Clear,210,2013-11-25 07:58:00
3:58 AM,20.5,14.9,79,30.42,10.0,SSW,10.4,-,N/A,,Clear,210,2013-11-25 08:58:00
4:58 AM,21.9,15.6,77,30.40,10.0,SSW,11.5,-,N/A,,Partly Cloudy,200,2013-11-25 09:58:00
5:58 AM,23.5,16.3,74,30.39,10.0,SSW,11.5,-,N/A,,Scattered Clouds,200,2013-11-25 10:58:00
6:58 AM,23.7,15.6,71,30.35,10.0,South,16.1,-,N/A,,Scattered Clouds,190,2013-11-25 11:58:00
7:58 AM,24.3,15.6,70,30.35,10.0,SSW,10.4,-,N/A,,Mostly Cloudy,210,2013-11-25 12:58:00
8:58 AM,24.4,16.0,70,30.35,10.0,SSW,12.7,-,N/A,,Mostly Cloudy,210,2013-11-25 13:58:00
9:58 AM,27.0,16.5,65,30.33,10.0,SW,15.0,24.2,N/A,,Overcast,220,2013-11-25 14:58:00
10:31 AM,28.4,15.8,59,30.27,10.0,SSW,16.1,-,N/A,,Scattered Clouds,210,2013-11-25 15:31:00
10:58 AM,28.8,16.2,59,30.31,10.0,SSW,16.1,-,N/A,,Mostly Cloudy,210,2013-11-25 15:58:00
11:58 AM,29.1,16.0,58,30.28,10.0,SSW,16.1,-,N/A,,Overcast,210,2013-11-25 16:58:00
12:58 PM,30.9,16.0,54,30.26,10.0,SW,15.0,-,N/A,,Overcast,230,2013-11-25 17:58:00
1:58 PM,31.5,15.8,52,30.23,10.0,SW,16.1,-,N/A,,Mostly Cloudy,230,2013-11-25 18:58:00
2:45 PM,32.0,15.8,51,30.17,10.0,SW,17.3,-,N/A,,Mostly Cloudy,230,2013-11-25 19:45:00
2:58 PM,30.7,18.3,60,30.22,10.0,WSW,15.0,-,0.00,,Scattered Clouds,240,2013-11-25 19:58:00
3:01 PM,32.0,17.6,55,30.17,10.0,SW,15.0,-,N/A,,Scattered Clouds,220,2013-11-25 20:01:00
3:58 PM,32.2,16.5,53,30.20,10.0,SW,11.5,-,0.00,,Mostly Cloudy,220,2013-11-25 20:58:00
4:58 PM,32.0,17.4,55,30.22,10.0,SW,15.0,-,N/A,,Overcast,220,2013-11-25 21:58:00
6:55 PM,32.0,19.4,60,30.14,10.0,SSW,11.5,-,N/A,,Overcast,210,2013-11-25 23:55:00
7:49 PM,32.0,19.4,60,30.16,10.0,SW,12.7,-,N/A,,Overcast,230,2013-11-26 00:49:00
7:58 PM,32.0,19.6,60,30.20,10.0,SW,12.7,-,N/A,,Overcast,220,2013-11-26 00:58:00
8:23 PM,32.0,19.4,60,30.16,10.0,SW,15.0,-,N/A,,Mostly Cloudy,230,2013-11-26 01:23:00
8:28 PM,32.0,19.4,60,30.17,10.0,WSW,13.8,-,N/A,,Mostly Cloudy,240,2013-11-26 01:28:00
8:33 PM,32.0,19.4,60,30.16,10.0,WSW,16.1,-,N/A,,Mostly Cloudy,240,2013-11-26 01:33:00
8:36 PM,32.0,21.2,64,30.16,10.0,WSW,16.1,21.9,N/A,Snow,Light Snow,240,2013-11-26 01:36:00
8:41 PM,32.0,21.2,64,30.17,10.0,WSW,16.1,-,N/A,Snow,Light Snow,250,2013-11-26 01:41:00
8:58 PM,31.1,22.1,69,30.21,10.0,WSW,16.1,-,0.00,Snow,Light Snow,240,2013-11-26 01:58:00
9:38 PM,32.0,23.0,69,30.16,5.0,WSW,17.3,-,N/A,Snow,Light Snow,250,2013-11-26 02:38:00
9:58 PM,29.1,26.6,90,30.20,10.0,West,9.2,-,0.01,Snow,Light Snow,280,2013-11-26 02:58:00
10:46 PM,28.4,28.4,100,30.16,10.0,West,6.9,-,N/A,,Overcast,280,2013-11-26 03:46:00
10:58 PM,28.8,27.5,95,30.19,10.0,West,8.1,-,0.00,,Overcast,270,2013-11-26 03:58:00
10:59 PM,28.4,26.6,93,30.15,10.0,West,6.9,-,N/A,,Scattered Clouds,280,2013-11-26 03:59:00
11:24 PM,28.4,28.4,100,30.14,4.0,WNW,8.1,-,N/A,Snow,Light Snow,300,2013-11-26 04:24:00
11:29 PM,28.4,28.4,100,30.14,1.2,WNW,10.4,-,N/A,Snow,Light Snow,290,2013-11-26 04:29:00
11:34 PM,28.4,28.4,100,30.14,1.0,WNW,10.4,-,N/A,Snow,Light Snow,290,2013-11-26 04:34:00
11:39 PM,28.4,28.4,100,30.14,1.2,West,8.1,-,N/A,Snow,Light Snow,280,2013-11-26 04:39:00
11:44 PM,26.6,26.6,100,30.14,2.0,West,6.9,-,N/A,Snow,Light Snow,280,2013-11-26 04:44:00
11:49 PM,26.6,26.6,100,30.14,5.0,West,9.2,-,N/A,Snow,Light Snow,260,2013-11-26 04:49:00
11:54 PM,26.6,26.6,100,30.14,10.0,WSW,8.1,-,N/A,Snow,Light Snow,250,2013-11-26 04:54:00
11:55 PM,26.6,26.6,100,30.14,10.0,WSW,8.1,-,N/A,,Overcast,250,2013-11-26 04:55:00
11:58 PM,27.3,27.3,100,30.18,10.0,WSW,8.1,-,0.00,,Overcast,250,2013-11-26 04:58:00